Flag for Australia Weather past 2 weeks in Canberra, Australian Capital Territory, Australia

Now
55 °F

Clear.


Feels Like: 50 °F
Forecast: 38 / 51 °F
Wind: 26 mph from Northwest

Location: Canberra Airport

Current Time: Jul 31, 2014 at 10:34:59 PM

Latest Report: Jul 31, 2014 at 9:56 PM


Visibility: N/A

Pressure: 29.62 "Hg

Humidity: 47%

Dew point: 36 °F

Location of CanberraLocation

Historic Weather in Canberra — Graph

°F

Canberra temperature yesterday

Maximum temperature yesterday: 57 °F (at 11:00 AM)
Minimum temperature yesterday: 52 °F (at 5:30 AM)
Average temperature yesterday: 54 °F

Past Weeks' High & Low Weather Summary

 TemperatureHumidityPressure
High63 °F (Jul 31, 12:00 PM)100% (Jul 20, 6:00 AM)30.36 "Hg (Jul 20, 6:00 AM)
Low23 °F (Jul 20, 7:00 AM)35% (Jul 20, 2:00 PM)29.62 "Hg (Jul 31, 5:46 PM)
Average44 °F77%30.09 "Hg
* Reported Jul 16 9:00 PM — Jul 31 9:00 PM, Canberra, Weather by CustomWeather, © 2014

Note: Actual official high and low records may vary slightly from our data, if they occured in-between our weather recording intervals... More about our weather records

Advertising

Canberra weather history for previous 24 hours

 ConditionsComfort  
Time TempWeatherWind HumidityBarometerVisibility
9:00 PM
Jul 31
55 °FClear.29 mph51%29.62 "HgN/A
8:30 PM55 °FClear.28 mph47%29.62 "Hg10 mi
8:00 PM57 °FClear.29 mph44%29.65 "Hg10 mi
7:30 PM57 °FClear.28 mph44%29.62 "Hg10 mi
7:00 PM55 °FClear.24 mph51%29.65 "Hg10 mi
6:30 PM57 °FClear.26 mph48%29.62 "Hg10 mi
6:00 PM57 °FClear.28 mph48%29.62 "Hg10 mi
5:46 PM57 °FClear.28 mph48%29.62 "Hg10 mi
5:30 PM57 °FClear.28 mph48%29.65 "Hg10 mi
5:00 PM59 °FPassing clouds.26 mph45%29.65 "HgN/A
4:30 PM59 °FPassing clouds.29 mph45%29.65 "HgN/A
4:00 PM61 °FPassing clouds.33 mph42%29.68 "HgN/A
3:00 PM61 °FPassing clouds.35 mph42%29.68 "HgN/A
2:30 PM61 °FPassing clouds.31 mph42%29.71 "HgN/A
2:00 PM61 °FPassing clouds.32 mph42%29.71 "HgN/A
1:30 PM61 °FPassing clouds.31 mph42%29.74 "HgN/A
1:00 PM61 °FPassing clouds.25 mph45%29.74 "HgN/A
12:30 PM61 °FPassing clouds.30 mph45%29.77 "HgN/A
12:00 PM63 °FPassing clouds.23 mph42%29.80 "HgN/A
11:47 AM61 °FPassing clouds.23 mph45%29.83 "HgN/A
11:30 AM61 °FPassing clouds.25 mph45%29.83 "HgN/A
11:00 AM59 °FPassing clouds.23 mph48%29.83 "HgN/A
10:30 AM59 °FPassing clouds.21 mph51%29.86 "HgN/A
10:00 AM57 °FPassing clouds.20 mph51%29.86 "HgN/A
9:30 AM55 °FPassing clouds.16 mph55%29.86 "HgN/A
9:00 AM54 °FPassing clouds.18 mph63%29.89 "HgN/A
8:30 AM50 °FPassing clouds.18 mph67%29.89 "HgN/A
8:00 AM50 °FPassing clouds.16 mph67%29.89 "HgN/A
7:30 AM48 °FPassing clouds.17 mph76%29.89 "HgN/A
7:00 AM48 °FPassing clouds.16 mph76%29.89 "HgN/A
6:30 AM48 °FPassing clouds.20 mph76%29.89 "HgN/A
6:00 AM48 °FPassing clouds.20 mph76%29.89 "HgN/A
5:30 AM48 °FPassing clouds.20 mph76%29.89 "HgN/A
5:00 AM50 °FPassing clouds.22 mph71%29.89 "HgN/A
4:30 AM50 °FPassing clouds.21 mph71%29.89 "HgN/A
3:30 AM52 °FClear.18 mph72%29.89 "HgN/A
3:00 AM52 °FClear.18 mph72%29.92 "HgN/A
2:30 AM52 °FPassing clouds.17 mph72%29.92 "HgN/A
2:00 AM54 °FPartly cloudy.18 mph67%29.92 "HgN/A
1:00 AM52 °FPartly cloudy.17 mph77%29.95 "HgN/A
12:30 AM52 °FPartly cloudy.17 mph77%29.95 "HgN/A
12:00 AM54 °FPartly cloudy.18 mph72%29.98 "HgN/A
11:30 PM
Jul 30
54 °FMostly cloudy.20 mph72%29.98 "HgN/A
11:00 PM54 °FPassing clouds.20 mph77%29.98 "HgN/A
10:30 PM54 °FPartly cloudy.20 mph77%29.98 "HgN/A
10:00 PM54 °FOvercast.21 mph77%29.98 "HgN/A
Weather by CustomWeather, © 2014

See weather overviewHow to use our weather pages